Regional Weather Roundup
Issued by NWS

Home | Current Version | Previous Version | Graphics & Text | Print | Product List | Glossary On
Versions: 1 2 3 4 5 6 7 8 9 10 11 12 13 14 15 16 17 18 19 20 21 22 23 24 25 26 27 28 29 30 31 32 33 34 35 36 37 38 39 40 41 42 43 44 45 46 47 48 49 50
000
ASUS43 KIND 290559
RWRIN

WEATHER ROUNDUP FOR INDIANA
NATIONAL WEATHER SERVICE INDIANAPOLIS IN
200 AM EDT SUN MAR 29 2015

NOTE: "FAIR" INDICATES FEW OR NO CLOUDS BELOW 12,000 FEET WITH NO
SIGNIFICANT WEATHER AND/OR OBSTRUCTIONS TO VISIBILITY.

* - STATION DOES NOT REPORT WEATHER SUCH AS PRECIPITATION OR FOG.

+ - STATION NOT QUALITY CONTROLLED BY THE NATIONAL WEATHER SERVICE.
    USE DATA WITH CAUTION...ESPECIALLY DEWPOINT AND RELATIVE
    HUMIDITY OBSERVATIONS.

INZ001>003-010>013-019-020-290700-
NORTHWEST INDIANA

CITY           SKY/WX    TMP DP  RH WIND       PRES   REMARKS
GARY /AIRPORT/ CLEAR     26  11  53 SE5       30.29F WCI  21
KNOX *+          N/A     21   9  58 SE5       30.29F WCI  15

$$

LMZ046-743>745-290700-
SOUTHERN LAKE MICHIGAN

STATION/POSITION TIME  TEMP WIND        PRES
                       AIR  DIR/SP/G
                 (UTC) (F)  (DEG/KT/KT) (MB)
BURNS HARBOR     0500   26  170/  8/ 13 1026.1F
MICHIGAN CITY    0500   24  120/  8/ 10   N/A

$$

INZ004-005-014>016-021>024-290700-
NORTH CENTRAL INDIANA

CITY           SKY/WX    TMP DP  RH WIND       PRES   REMARKS
GOSHEN         CLEAR     22  16  78 S3        30.30S
6HR MIN TEMP:  21; 6HR MAX TEMP:  33;

SOUTH BEND     CLEAR     23  14  68 SE3       30.29F
6HR MIN TEMP:  21; 6HR MAX TEMP:  29;

WARSAW +       CLEAR     19  14  79 CALM      30.30S

$$

INZ006>009-017-018-025>027-290700-
NORTHEAST INDIANA

CITY           SKY/WX    TMP DP  RH WIND       PRES   REMARKS
ANGOLA *+      CLEAR     19  12  73 CALM      30.29F
FORT WAYNE     CLEAR     23  16  74 S7        30.32S WCI  15
6HR MIN TEMP:  23; 6HR MAX TEMP:  32;


$$

INZ028-029-035-036-043>045-051>053-290700-
WEST CENTRAL INDIANA

CITY           SKY/WX    TMP DP  RH WIND       PRES   REMARKS
CRAWFORDSVL +  FAIR      24  13  64 SE6       30.32S WCI  17
6HR MIN TEMP:  23; 6HR MAX TEMP:  32;

GREENCASTLE +  CLEAR     27  12  54 CALM      30.33R
LAFAYETTE      CLEAR     27  15  61 SE3       30.32S
6HR MIN TEMP:  25; 6HR MAX TEMP:  34;

TERRE HAUTE    CLEAR     26  19  74 SE5       30.33F WCI  20
6HR MIN TEMP:  26; 6HR MAX TEMP:  39;


$$

INZ030>032-037>040-046>048-054>057-064-065-290700-
CENTRAL INDIANA

CITY           SKY/WX    TMP DP  RH WIND       PRES   REMARKS
CP ATTERBURY + CLEAR     23  19  86 CALM      30.35S
FRANKFORT +    CLEAR     24  19  82 SE7       30.32F WCI  16
6HR MIN TEMP:  23; 6HR MAX TEMP:  34;

GREENWOOD *+   CLEAR     27  12  54 SE3       30.34S
INDIANAPOLIS   CLEAR     26  13  57 SE6       30.32S WCI  19
6HR MIN TEMP:  26; 6HR MAX TEMP:  34;

-EAGLE CREEK   CLEAR     25  16  68 SE3       30.32F
6HR MIN TEMP:  25; 6HR MAX TEMP:  35;

KOKOMO *+        N/A     25  18  74 S6        30.32S WCI  18
6HR MIN TEMP:  25; 6HR MAX TEMP:  34;

MT COMFORT *+  CLEAR     27  12  54 SE5       30.33S WCI  21
SHELBYVILLE    CLEAR     27  17  66 SE6       30.33S WCI  20
6HR MIN TEMP:  25; 6HR MAX TEMP:  36;


$$

INZ033-034-041-042-049-050-058-059-290700-
EAST CENTRAL INDIANA

CITY           SKY/WX    TMP DP  RH WIND       PRES   REMARKS
MUNCIE         CLEAR     25  14  63 S5        30.32F WCI  19
6HR MIN TEMP:  25; 6HR MAX TEMP:  33;


$$

INZ060-061-067>069-081>083-085>088-290700-
SOUTHWEST INDIANA

CITY           SKY/WX    TMP DP  RH WIND       PRES   REMARKS
EVANSVILLE     CLEAR     30  20  66 CALM      30.36S
6HR MIN TEMP:  30; 6HR MAX TEMP:  41;

HUNTINGBURG *+ CLEAR     28  18  64 E5        30.35S WCI  23
6HR MIN TEMP:  27; 6HR MAX TEMP:  39;


$$

INZ062-063-066-070>080-084-089>092-290700-
SOUTH CENTRAL AND SOUTHEAST INDIANA

CITY           SKY/WX    TMP DP  RH WIND       PRES   REMARKS
BLOOMINGTON    CLEAR     24  18  77 CALM      30.33S
6HR MIN TEMP:  23; 6HR MAX TEMP:  36;

SEYMOUR +      CLEAR     27  19  74 CALM      30.36S

$$



USA.gov is the U.S. government's official web portal to all federal, state and local government web resources and services.